User: anonymous   Login
Location: Bullenkuhlen
(53.7689°N, 9.7495°E)
Time: 11:56:49
(UTC+00:00)
Language:

STARLINK-29 - Orbit

View from above orbital plane
View from above orbital plane
View from above satellite
View from above satellite

Ground track
Ground track

The orbit data is extracted from the following two-line orbital elements,

1 44243U 19029J   20191.25001157  .00819649  00000-0  59541-2 0  9995
2 44243  53.0006   4.4087 0001165  68.0143  81.8112 15.70392849 63885
Epoch (UTC): 09 July 2020 06:00:01
Eccentricity: 0.0001165
inclination: 53.0006°
perigee height: 357 km
apogee height: 358 km
right ascension of ascending node: 4.4087°
argument of perigee: 68.0143°
revolutions per day: 15.70392849
mean anomaly at epoch: 81.8112°
orbit number at epoch: 6388

The dashed part of the orbit path shows where the satellite is in the earth's shadow,  

DLR